www.pogodaiklimat.ru
ПОГОДА в Порт-Изабель
Время
и дата
10:53 02.10
11:53 02.10
12:53 02.10
13:53 02.10
14:53 02.10
15:53 02.10
16:53 02.10
17:53 02.10
18:53 02.10
19:53 02.10
20:53 02.10
21:53 02.10
22:53 02.10
23:53 02.10
00:53 03.10
01:53 03.10
02:53 03.10
03:53 03.10
04:53 03.10
05:53 03.10
06:53 03.10
07:53 03.10
08:53 03.10
09:53 03.10
10:53 03.10
11:53 03.10
12:53 03.10
13:53 03.10
14:53 03.10
15:53 03.10
16:53 03.10
17:53 03.10
18:53 03.10
19:53 03.10
20:53 03.10
21:53 03.10
22:53 03.10
23:53 03.10
00:53 04.10
01:53 04.10
02:53 04.10
03:53 04.10
04:53 04.10
05:53 04.10
06:53 04.10
07:53 04.10
08:53 04.10
09:53 04.10
Ветер
(напр.,м/с)
Видим. Явления Облачность Т
(С)
Тd
(С)
f
(%)
Тe
(С)
Тes
(С)
Комфортность P
(гПа)
Po
(гПа)
Тmin
(С)
Tmax
(С)
R
(мм)
R24
(мм)
S
(см)
В 5 16 км ясно +29.4 +17.2 48 +33 +39 душно 1018.7 1018.2
СВ 3
{9}
16 км 2/2 1650 м +30.0 +17.2 46 +34 +43 очень
душно
1018.4 1017.9 +20.0 +30.6
СВ 6
{10}
16 км ясно +30.0 +17.2 46 +34 +40 очень
душно
1017.8 1017.2
В 6 16 км 2/2 1650 м +29.4 +18.3 51 +34 +39 очень
душно
1017.2 1016.6
В 6
{10}
16 км ясно +30.0 +18.3 50 +35 +40 очень
душно
1017.1 1016.6
В 5 16 км 2/2 1500 м +29.4 +17.8 50 +34 +38 очень
душно
1017.1 1016.6
В 5 16 км ясно +28.3 +17.8 53 +33 +36 очень
душно
1017.5 1016.9
СВ 4 16 км ясно +27.2 +17.8 56 +31 +33 душно 1017.5 1016.9 +27.2 +30.6
СВ 3 16 км ясно +25.6 +17.8 62 +30 +30 душно 1017.8 1017.2
СВ 3 16 км ясно +25.0 +17.8 64 +29 +29 душно 1018.3 1017.6
СВ 4 16 км ясно +25.0 +17.8 64 +29 +29 душно 1018.9 1018.2
В 3 16 км ясно +24.4 +17.8 67 +29 +29 душно 1019.0 1018.2
СВ 3 16 км ясно +24.4 +17.8 67 +29 +29 душно 1018.7 1018.2
СВ 3 16 км ясно +24.4 +17.8 67 +29 +29 душно 1018.4 1017.9 +23.9 +27.2
В 2 16 км ясно +24.4 +17.8 67 +29 +29 душно 1018.2 1017.6
В 2 16 км ясно +24.4 +18.3 69 +29 +29 душно 1018.0 1017.2
В 3 16 км ясно +23.9 +18.3 71 +28 +28 душно 1017.8 1017.2
В 3 16 км ясно +23.9 +17.8 69 +28 +28 душно 1017.5 1016.9
СВ 3 16 км ясно +23.3 +17.2 69 +29 +29 душно 1017.7 1017.2
СВ 2 16 км ясно +23.3 +16.7 66 +28 +28 душно 1018.2 1017.6 +23.3 +24.4
штиль 0 16 км ясно +21.1 +16.7 76 +25 +25 комфорт 1018.7 1017.9
З 3 16 км ясно +23.9 +19.4 76 +29 +29 душно 1019.2 1018.6
штиль 0 16 км 2/2 1290 м +27.2 +18.9 60 +32 +34 очень
душно
1019.4 1018.9
СВ 3 16 км ясно +29.4 +16.1 45 +33 +37 душно 1019.5 1018.9
16 км ясно +29.4 +16.7 46 +33 +46 душно 1019.3 1018.6
СВ 4 16 км ясно +29.4 +16.1 45 +33 +42 душно 1018.9 1018.2 +20.6 +30.0
СВ 3
{8}
16 км ясно +29.4 +16.7 46 +33 +46 душно 1018.1 1017.6
В 4
{8}
16 км ясно +29.4 +16.1 45 +33 +43 душно 1017.2 1016.6
В 3 16 км ясно +28.3 +16.7 49 +32 +43 душно 1017.1 1016.6
С 4 16 км ясно +27.8 +16.7 51 +31 +38 душно 1016.9 1016.2
С 4 16 км ясно +27.2 +17.2 54 +31 +35 душно 1017.0 1016.2
СВ 3 16 км ясно +26.1 +17.2 58 +30 +32 душно 1017.1 1016.6 +26.1 +30.0
штиль 0 16 км ясно +25.6 +17.8 62 +30 +30 душно 1017.3 1016.6
СВ 2 16 км ясно +25.0 +18.3 66 +29 +29 душно 1017.3 1016.9
СВ 3 16 км ясно +24.4 +17.8 67 +29 +29 душно 1017.6 1016.9
СВ 3 16 км ясно +25.0 +17.8 64 +29 +29 душно 1017.9 1017.2
В 2 16 км ясно +24.4 +17.8 67 +29 +29 душно 1017.6 1016.9
В 3 16 км ясно +25.0 +18.3 66 +29 +29 душно 1017.3 1016.6 +23.9 +26.1
штиль 0 16 км ясно +23.3 +18.3 73 +29 +29 душно 1017.1 1016.6
штиль 0 16 км 5/5 1290 м +21.7 +18.9 84 +27 +27 душно 1016.7 1016.2
СЗ 2 16 км 2/2 1350 м +22.8 +19.4 81 +29 +29 очень
душно
1016.3 1015.5
З 2 16 км 2/2 1350 м +22.2 +19.4 84 +28 +28 душно 1016.0 1015.5
З 3 16 км ясно +21.7 +19.4 87 +27 +27 душно 1016.2 1015.5
СЗ 2 16 км ясно +22.2 +19.4 84 +28 +28 душно 1016.5 1015.9 +21.1 +25.0
СЗ 2 16 км ясно +22.8 +19.4 81 +29 +29 очень
душно
1016.7 1016.2
СЗ 2 16 км 8/8 1290 м +24.4 +20.0 76 +30 +30 очень
душно
1017.2 1016.6
нст 2 16 км 5/5 1230 м +27.8 +20.6 65 +35 +36 очень
душно
1017.6 1016.9
штиль 0 16 км ясно +27.8 +19.4 60 +33 +41 очень
душно
1017.8 1017.2
Местоположение метеостанции Port Isabel-Cameron County Airport: широта 26.1592 долгота -97.3375 высота над уровнем моря 5 м.
В архиве по умолчанию представлена погода в Порт-Изабель за последние 1-2 суток. Обновление информации о фактической погоде в базе происходит ежечасно! Архивные данные за месяц целиком и за предыдущие месяцы Вы можете получить, выбрав интересующий диапазон дат из раскрывающегося списка и нажав кнопку "Ввод!".
Внимание! Архив погоды МЕТАР в базе сайта по станциям, не включенным в климатический монитор, хранится не более 60 дней. Нет смысла пытаться выбрать более раннюю дату.
*Определитесь, кто Вы:
Внимание! Время в таблицах - местное (без учета летнего времени). Для получения всемирного времени необходимо вычесть поправку, которая равна -6 ч.
Смотрите также архив погоды в соседних городах и на ближайших метеорологических станциях:
Партнеры нашего сайта:      
Пояснения к столбцам:
  • Ветер - указаны скорость ветра в м/с - средняя за 10 мин, порывы в срок и между сроками (в фигурных скобках) и направление, откуда дует ветер: С - северный,
  • СВ - северо-восточный, В - восточный, ЮВ - юго-восточный, Ю - южный, ЮЗ - юго-западный, З - западный, СЗ - северо-западный.
  • Видимость - горизонтальная дальность видимости в метрах или километрах. При видимости от 1 до 10 км при отсутствии осадков обычно наблюдается дымка, при ухудшении видимости до 1 км и менее - туман. В сухую погоду видимость может ухудшаться дымом, пылью или мглою.
  • Явления - указаны атмосферные явления, наблюдавшиеся в срок или в последний час перед сроком; фигурными скобками обозначены явления, наблюдавшиеся между сроками (за 1-3 часа до срока); квадратными скобками обозначены град или гололедные отложения с указанием их диаметра в мм.
  • Облачность - указаны через наклонную черту общая и нижняя облачность в баллах и высота нижней границы облаков в метрах; квадратными скобками обозначены формы облаков: Ci - перистые, Cs - перисто-слоистые, Cc - перисто-кучевые, Ac - высококучевые, As - высокослоистые, Sc - слоисто-кучевые, Ns - слоисто-дождевые, Cu - кучевые, Cb - кучево-дождевые. Подробнее классификацию облаков см. в Атласе облаков (PDF).
  • T - Температура воздуха - температура, измеренная на высоте 2 м над землей.
  • Td - Температура точки росы - температура, при понижении до которой содержащийся в воздухе водяной пар достигнет насыщения.
  • f - Относительная влажность воздуха - влажноcть воздуха, измеренная на высоте 2 м над землей.
  • Te - Эффективная температура - температура, которую ощущает одетый по сезону человек в тени. Характеристика душности погоды. При расчете учитывается влияние влажности воздуха и скорости ветра на теплоощущения человека.
  • Tes - Эффективная температура на солнце - температура, которую ощущает человек, с поправкой на солнечный нагрев. Характеристика знойности погоды. Зависит от высоты солнца над горизонтом, облачности и скорости ветра. Ночью, в пасмурную погоду, а также при ветре 12 м/с и более поправка равна нулю.
  • P - Атмосферное давление - приведенное к уровню моря атмосферное давление.
  • Po - Атмосферное давление - измеренное на уровне метеостанции атмосферное давление.
  • Tmin - Минимальная температура - минимум температуры воздуха на высоте 2 м над землей.
  • Tmax - Максимальная температура - максимум температуры воздуха на высоте 2 м над землей.
  • R - Количество осадков - Количество выпавших осадков за период времени, мм. При наведении курсора мыши на число - период времени, за который выпало указанное количество осадков.
  • R24 - Количество осадков - Количество выпавших осадков за 24 часа, мм.
  • S - Снежный покров - Высота снежного покрова, см. При наведении курсора мыши на число - состояние снежного покрова и степень покрытия местности в баллах.